COSMOS 1160

Satellite information

Favourite Embed

Satellite Type and Status

PAYLOADIN ORBIT

Key statistics

Satellite COSMOS 1160 at a glance.

Uptime

16701

Days in orbit

Revolutions

≈ 12.5

Per day

Orbit

LEO

Low Earth Orbit

Inclination

74.0

Latest

Satellite identification and parameters

Extended collection of information and parameters for COSMOS 1160.

Object identification

Identified? True

Debris? False

Object name: COSMOS 1160

International designator: 1980-012E

Object number (NORAD): 11695

Object ID (CCSDS): 11695

Country: COMMONWEALTH OF INDEPENDENT STATES (CIS)

Current information (Y/N): Y

RCS size: MEDIUM

Orbital parameters

Period: 115.406 minutes

Inclination: 74.0241 deg

SMA: 7851.966 km

Apoapsis: 1482.296 km

Periapsis: 1465.367 km

RAAN: 356.4441 deg

Eccentricy: 0.00107799

Argument of periapsis: 46.891 deg

Mean anomaly: 113.4081 deg

Mean motion: 12.47771682 rev/day

Mean motion (dot): -0.00000004 rev/day2

B* drag term: 0.000079829252 1/REarth

Two-line elements (TLE)

Creation date: Nov. 1, 2025, 7:40 p.m.

Reference frame: TEME

Reference center: EARTH

Epoch: Nov. 1, 2025, 2:12 p.m. UTC

TLE line 0: 0 COSMOS 1160

TLE line 1: 1 11695U 80012E 25305.59175990 -.00000004 00000-0 79829-4 0 9997

TLE line 2: 2 11695 74.0241 356.4441 0010780 46.8910 113.4081 12.47771682 82590

Live tracking on map

Real-time ground track for satellite COSMOS 1160.

In-orbit conjunctions

There are no conjunctions computed for COSMOS 1160, at the moment. Check back to stay up to date, as we update our databases every day.

Go to all conjunctions

Associated space launch

Military communications satellites

COSMOS 1160 was lifted into orbit during the mission ‘Kosmos-3M | Strela-1M 185-192’, on board a Kosmos-3M space rocket.

The launch took place on Feb. 11, 1980, 11:32 p.m. from 132/2.

For more information about the launch, click the button.

Launch to space Kosmos-3M | Strela-1M 185-192
Kosmos-3M | Strela-1M 185-192

Agency: N/A

Status: Launch Successful

Launch date: Feb. 11, 1980, 11:32 p.m. UTC

Rocket: Kosmos-3M

Launch pad: 132/2

Location: Plesetsk Cosmodrome, Russian Federation

...

Latest news about this satellite

There are no fresh news available about this satellite. Check back as we update our databases every day.


Newsletter sign-up

Weekly statistics, charts and insights to help you stay on top of the space industry.